Regional Weather Roundup
Issued by NWS

Home | Current Version | Previous Version | Text Only | Print | Product List | Glossary On
Versions: 1 2 3 4 5 6 7 8 9 10 11 12 13 14 15 16 17 18 19 20 21 22 23 24 25 26 27 28 29 30 31 32 33 34 35 36 37 38 39 40 41 42 43 44 45 46 47 48 49 50
000
ASUS44 KJAN 300603
RWRMS

MISSISSIPPI HOURLY WEATHER ROUNDUP
NATIONAL WEATHER SERVICE JACKSON MS
1200 AM CST FRI JAN 30 2015

NOTE: "FAIR: INDICATES FEW OR NO CLOUDS BELOW 12,000 FEET WITH NO
SIGNIFICANT WEATHER AND/OR OBSTRUCTIONS TO VISIBILITY.

MSZ001>002-007>008-010>013-018>021-025>028-034>036-300700-
NORTHWEST MISSISSIPPI

CITY           SKY/WX    TMP DP  RH WIND       PRES   REMARKS
CLARKSDALE     FAIR      41  32  70 N12       30.44S
CLEVELAND      MOCLDY    42  34  73 N12       30.43S
GREENWOOD      CLOUDY    45  34  65 N13G20    30.40R
6HR MIN TEMP:  45; 6HR MAX TEMP:  62;

GREENVILLE     PTCLDY    43  32  65 N13       30.43R
6HR MIN TEMP:  43; 6HR MAX TEMP:  58;

GRENADA        CLOUDY    43  32  65 N7        30.41S
OLIVE BRANCH   CLOUDY    39  30  70 N9G20     30.41S WCI  33
OXFORD         MOCLDY    41  28  60 N8G18     30.42R
TUNICA         CLEAR     36  30  80 N5        30.44S WCI  32
$$

MSZ003>006-009-014>017-022>024-029>033-037>039-300700-
NORTHEAST MISSISSIPPI

CITY           SKY/WX    TMP DP  RH WIND       PRES   REMARKS
COLUMBUS AFB   CLOUDY    45  32  60 N15G23    30.36R
6HR MIN TEMP:  45; 6HR MAX TEMP:  63;

CORINTH        CLOUDY    45  28  53 N10       30.37S
GOLDN TRIANGLE CLOUDY    46  34  61 N16G22    30.35R
STARKVILLE     CLOUDY    45  36  70 N6        30.36R
TUPELO         CLOUDY    43  30  60 N18G26    30.39R
6HR MIN TEMP:  43; 6HR MAX TEMP:  58;

$$

MSZ040-058-300700-
CENTRAL MISSISSIPPI

CITY           SKY/WX    TMP DP  RH WIND       PRES   REMARKS
JACKSON INTL   CLEAR     47  37  68 N14       30.35R
6HR MIN TEMP:  47; 6HR MAX TEMP:  66;

JACKSON HAWKNS CLEAR     46  35  65 N12G18    30.36R
6HR MIN TEMP:  46; 6HR MAX TEMP:  65;

MERIDIAN KEY   CLEAR     52  40  63 N20G28    30.29R
6HR MIN TEMP:  52; 6HR MAX TEMP:  66;

MERIDIAN NAS   PTCLDY    50  38  63 N12       30.32R
6HR MIN TEMP:  50; 6HR MAX TEMP:  68;

RAYMOND        FAIR      46  41  81 MISG      30.38R
VICKSBURG      PTCLDY    45  35  68 N18G30    30.41R
6HR MIN TEMP:  45; 6HR MAX TEMP:  66;

$$

MSZ059>079-300700-
SOUTH MISSISSIPPI

CITY           SKY/WX    TMP DP  RH WIND       PRES   REMARKS
BROOKHAVEN     FAIR      52  41  66 N18G28    30.32R
HATTIESBURG    MOCLDY    60  49  66 N12       30.26R
6HR MIN TEMP:  54; 6HR MAX TEMP:  69;

MCCOMB         CLOUDY    58  44  60 N12G22    30.28R
6HR MIN TEMP:  57; 6HR MAX TEMP:  69;

NATCHEZ        MOCLDY    50  37  62 N20G26    30.36R
6HR MIN TEMP:  50; 6HR MAX TEMP:  68;

PINE BELT      MOCLDY    57  45  62 N13G21    30.27R
6HR MIN TEMP:  54; 6HR MAX TEMP:  66;

$$

MSZ080>082-300700-
COASTAL MISSISSIPPI

CITY           SKY/WX    TMP DP  RH WIND       PRES   REMARKS
BILOXI         PTCLDY    57  57 100 VRB2      30.21S
6HR MIN TEMP:  56; 6HR MAX TEMP:  61;

PASCAGOULA     PTCLDY    58  56  93 W3        30.21S
6HR MIN TEMP:  58; 6HR MAX TEMP:  62;

GULFPORT       MOCLDY    60  56  86 W6        30.21S
6HR MIN TEMP:  59; 6HR MAX TEMP:  62;

$$


USA.gov is the U.S. government's official web portal to all federal, state and local government web resources and services.